Overview Statistics Trail Chart Weather Telemetry Raw packets
 

This is the latest recevied weather packets stored in our database for station/object N6OIM. If no packets are shown the sender has not sent any weather packets the latest 10 day(s).

<< 87 88 89 90 91 92 93 >>
Time Temp. Humidity Pressure Rain* Wind** Luminosity Snow
1788042509 33.33° C 22% 1010.1 hPa 0 mm - - -
1788042205 33.33° C 23% 1010.2 hPa 0 mm - - -
1788041913 32.78° C 23% 1010.3 hPa 0 mm - - -
1788041602 32.78° C 24% 1010.3 hPa 0 mm - - -
1788041311 32.78° C 24% 1010.6 hPa 0 mm - - -
1788041001 32.78° C 24% 1010.6 hPa 0 mm - - -
1788040711 32.78° C 24% 1010.8 hPa 0 mm - - -
1788040401 32.22° C 24% 1010.8 hPa 0 mm - - -
1788040110 32.22° C 24% 1010.8 hPa 0 mm - - -
1788039804 32.22° C 25% 1010.9 hPa 0 mm - - -
1788039513 32.22° C 24% 1011 hPa 0 mm - - -
1788039206 31.67° C 26% 1011.2 hPa 0 mm - - -
1788038898 31.67° C 26% 1011.3 hPa 0 mm - - -
1788038607 31.67° C 25% 1011.4 hPa 0 mm - - -
1788038315 31.67° C 25% 1011.4 hPa 0 mm - - -
1788038005 31.11° C 26% 1011.3 hPa 0 mm - - -
1788037713 31.67° C 27% 1011.3 hPa 0 mm - - -
1788037402 31.11° C 26% 1011.3 hPa 0 mm - - -
1788037098 31.11° C 26% 1011.4 hPa 0 mm - - -
1788036807 31.11° C 27% 1011.4 hPa 0 mm - - -
1788036495 31.11° C 29% 1011.5 hPa 0 mm - - -
1788036207 30.56° C 28% 1011.5 hPa 0 mm - - -
1788035900 30.56° C 29% 1011.5 hPa 0 mm - - -
1788035610 30.56° C 31% 1011.6 hPa 0 mm - - -
1788035299 30° C 31% 1011.7 hPa 0 mm - - -

* Rain latest hour (hover to see other rain measurements)
** Current wind speed in m/s (hover to see current wind gust speed)